CYGFM05

Last updated on Sat Sep 12 2026 00:02:41 GMT+0000 (Coordinated Universal Time)

1 41884U 16078A 26254.58889086 .00023437 00000+0 27550-3 0 9998 2 41884 34.9562 46.8452 0005550 263.2998 96.7096 15.60421100542243
UTC large
Height (km)
Speed (km/s)
/
Latitude / Longitude
Inclination (degrees)
Orbital Period (minutes)
Azimuth
Elevation
Range (km)
Doppler Factor

Next 0 passes for location: London (51.5072 / 0.1276)

No passes found over London.
CYGFM05